Location: Piotrkow Trybunalski
(51.4000°N, 19.6830°E)
Time: 18:04:30
(UTC+01:00)

Explorer 7 - Pass Details

Date: 27 January 2023
Orbit: 478 x 657 km, 50.3° (Epoch: 19 March)

Event Time Altitude Azimuth Distance (km) Brightness Sun altitude
Rises 17:17:11 0° 270° (W) 2,870 12.1 -8.7°
Reaches altitude 10° 17:19:27 10° 269° (W) 1,991 11.1 -9.1°
Maximum altitude 17:24:03 79° 183° (S) 659 7.2 -9.8°
Enters shadow 17:28:36 11° 98° (E) 1,976 9.1 -10.4°
